EA1AWV-13 Weather Reports


time (UTC)temp
F
wind
direction
speed
knots
gust
knots
rain 1hr
in
rain 24hr
in
rain mn
in
humidity
%
barometer
mb
20260507054245 46 0.0 0.0 0.00 0.00 0.00 10 1009.3
20260507053245 49 0.0 0.0 0.00 0.00 0.00 10 1009.1
20260507052245 47 0.0 0.0 0.00 0.00 0.00 10 1009.7
20260507051245 46 0.0 0.0 0.00 0.00 0.00 10 1010.0
20260507050245 45 0.0 0.0 0.00 0.00 0.00 10 1010.0
20260507045246 45 0.0 0.0 0.00 0.00 0.00 10 1010.1
20260507044245 45 0.0 0.0 0.00 0.00 0.00 10 1010.2
20260507043245 48 0.0 0.0 0.00 0.00 0.00 10 1009.4
20260507042245 48 0.0 0.0 0.00 0.00 0.00 10 1009.3
20260507041245 47 0.0 0.0 0.00 0.00 0.00 10 1009.8
20260507040245 47 0.0 0.0 0.00 0.00 0.00 10 1009.7
20260507035245 47 0.0 0.0 0.00 0.00 0.00 10 1009.7
20260507034245 47 0.0 0.0 0.00 0.00 0.00 10 1009.8
20260507033245 47 0.0 0.0 0.00 0.00 0.00 10 1009.8
20260507032245 48 0.0 0.0 0.00 0.00 0.00 10 1009.7
20260507031245 47 0.0 0.0 0.00 0.00 0.00 10 1010.0
20260507030245 46 0.0 0.0 0.00 0.00 0.00 10 1010.1
20260507025245 48 0.0 0.0 0.00 0.00 0.00 10 1009.8
20260507024245 47 0.0 0.0 0.00 0.00 0.00 10 1009.9
20260507023245 47 0.0 0.0 0.00 0.00 0.00 10 1010.1
20260507022245 47 0.0 0.0 0.00 0.00 0.00 10 1010.0
20260507021245 46 0.0 0.0 0.00 0.00 0.00 10 1010.3
20260507020245 47 0.0 0.0 0.00 0.00 0.00 10 1010.0
20260507015245 47 0.0 0.0 0.00 0.00 0.00 10 1010.2
20260507014245 47 0.0 0.0 0.00 0.00 0.00 10 1010.2
20260507013245 49 0.0 0.0 0.00 0.00 0.00 10 1009.7
20260507012245 49 0.0 0.0 0.00 0.00 0.00 10 1009.9
20260507011245 48 0.0 0.0 0.00 0.00 0.00 10 1010.2
20260507010245 48 0.0 0.0 0.00 0.00 0.00 10 1010.2
20260507005245 49 0.0 0.0 0.00 0.00 0.00 10 1010.0
20260507004245 49 0.0 0.0 0.00 0.00 0.00 10 1010.0
20260507003245 49 0.0 0.0 0.00 0.00 0.00 10 1010.0
20260507002245 51 0.0 0.0 0.00 0.00 0.00 10 1009.8
20260507001245 51 0.0 0.0 0.00 0.00 0.00 10 1009.8
20260507000245 51 0.0 0.0 0.00 0.00 0.00 10 1009.7
20260506235245 50 0.0 0.0 0.00 0.00 0.00 10 1010.0
20260506234245 50 0.0 0.0 0.00 0.00 0.00 10 1009.9
20260506233245 49 0.0 0.0 0.00 0.00 0.00 10 1010.2
20260506232245 51 0.0 0.0 0.00 0.00 0.00 10 1009.7
20260506231245 52 0.0 0.0 0.00 0.00 0.00 10 1009.5
20260506230245 53 0.0 0.0 0.00 0.00 0.00 10 1009.4
20260506225245 53 0.0 0.0 0.00 0.00 0.00 10 1009.5
20260506224245 53 0.0 0.0 0.00 0.00 0.00 10 1009.4
20260506223245 51 0.0 0.0 0.00 0.00 0.00 10 1009.7
20260506222245 51 0.0 0.0 0.00 0.00 0.00 10 1009.5
20260506221245 53 0.0 0.0 0.00 0.00 0.00 10 1009.2
20260506220245 54 0.0 0.0 0.00 0.00 0.00 10 1009.2
20260506215245 54 0.0 0.0 0.00 0.00 0.00 10 1009.2
20260506214245 54 0.0 0.0 0.00 0.00 0.00 10 1009.2
20260506213245 54 0.0 0.0 0.00 0.00 0.00 10 1009.2
20260506212245 54 0.0 0.0 0.00 0.00 0.00 10 1009.1
20260506211245 53 0.0 0.0 0.00 0.00 0.00 10 1009.1
20260506210245 52 0.0 0.0 0.00 0.00 0.00 10 1009.2
20260506205245 52 0.0 0.0 0.00 0.00 0.00 10 1009.2
20260506204245 52 0.0 0.0 0.00 0.00 0.00 10 1009.2
20260506203245 52 0.0 0.0 0.00 0.00 0.00 10 1009.0
20260506202245 54 0.0 0.0 0.00 0.00 0.00 10 1008.5
20260506201245 59 0.0 0.0 0.00 0.00 0.00 10 1007.4
20260506200245 59 0.0 0.0 0.00 0.00 0.00 10 1007.2
20260506195245 60 0.0 0.0 0.00 0.00 0.00 10 1007.0
20260506194245 60 0.0 0.0 0.00 0.00 0.00 10 1007.0
20260506193245 60 0.0 0.0 0.00 0.00 0.00 10 1006.9
20260506192245 61 0.0 0.0 0.00 0.00 0.00 10 1006.8
20260506191245 61 0.0 0.0 0.00 0.00 0.00 99 1006.7
20260506190245 61 0.0 0.0 0.00 0.00 0.00 10 1006.6
20260506185245 62 0.0 0.0 0.00 0.00 0.00 10 1006.4
20260506184245 62 0.0 0.0 0.00 0.00 0.00 98 1006.4
20260506183245 63 0.0 0.0 0.00 0.00 0.00 98 1006.2
20260506182245 63 0.0 0.0 0.00 0.00 0.00 10 1006.2
20260506181245 63 0.0 0.0 0.00 0.00 0.00 99 1006.0
20260506180245 64 0.0 0.0 0.00 0.00 0.00 10 1006.1
20260506175245 64 0.0 0.0 0.00 0.00 0.00 10 1006.0
20260506174244 65 0.0 0.0 0.00 0.00 0.00 10 1005.9
20260506173245 65 0.0 0.0 0.00 0.00 0.00 10 1006.0
20260506172244 65 0.0 0.0 0.00 0.00 0.00 99 1006.0
20260506171245 65 0.0 0.0 0.00 0.00 0.00 99 1006.0
20260506170245 65 0.0 0.0 0.00 0.00 0.00 10 1006.1
20260506165245 65 0.0 0.0 0.00 0.00 0.00 10 1006.0
20260506164244 65 0.0 0.0 0.00 0.00 0.00 10 1006.1
20260506163245 65 0.0 0.0 0.00 0.00 0.00 10 1006.1
20260506162244 65 0.0 0.0 0.00 0.00 0.00 10 1006.2
20260506161244 64 0.0 0.0 0.00 0.00 0.00 10 1006.4
20260506160245 64 0.0 0.0 0.00 0.00 0.00 10 1006.5
20260506155245 63 0.0 0.0 0.00 0.00 0.00 10 1006.8
20260506154244 63 0.0 0.0 0.00 0.00 0.00 10 1006.8
20260506153244 64 0.0 0.0 0.00 0.00 0.00 10 1006.6
20260506152244 63 0.0 0.0 0.00 0.00 0.00 10 1007.0
20260506151245 65 0.0 0.0 0.00 0.00 0.00 10 1006.8
20260506150244 64 0.0 0.0 0.00 0.00 0.00 10 1007.0
20260506145244 64 0.0 0.0 0.00 0.00 0.00 10 1007.0
20260506144244 63 0.0 0.0 0.00 0.00 0.00 10 1007.3
20260506143244 65 0.0 0.0 0.00 0.00 0.00 10 1006.9
20260506142244 65 0.0 0.0 0.00 0.00 0.00 10 1007.1
20260506141250 62 0.0 0.0 0.00 0.00 0.00 10 1007.6
20260506140245 62 0.0 0.0 0.00 0.00 0.00 10 1007.8
20260506135245 62 0.0 0.0 0.00 0.00 0.00 10 1007.9
20260506134245 62 0.0 0.0 0.00 0.00 0.00 10 1008.0
20260506133244 63 0.0 0.0 0.00 0.00 0.00 10 1007.8
20260506132244 61 0.0 0.0 0.00 0.00 0.00 10 1008.3
20260506131244 63 0.0 0.0 0.00 0.00 0.00 10 1008.0
20260506130244 62 0.0 0.0 0.00 0.00 0.00 10 1008.2
20260506125244 64 0.0 0.0 0.00 0.00 0.00 10 1008.0
20260506124244 62 0.0 0.0 0.00 0.00 0.00 10 1008.4
20260506123244 62 0.0 0.0 0.00 0.00 0.00 10 1008.7
20260506122244 61 0.0 0.0 0.00 0.00 0.00 10 1008.9
20260506121244 63 0.0 0.0 0.00 0.00 0.00 10 1008.8
20260506120244 61 0.0 0.0 0.00 0.00 0.00 10 1009.0
20260506115244 61 0.0 0.0 0.00 0.00 0.00 10 1009.2
20260506114244 62 0.0 0.0 0.00 0.00 0.00 10 1009.1
20260506113244 61 0.0 0.0 0.00 0.00 0.00 10 1009.4
20260506112244 59 0.0 0.0 0.00 0.00 0.00 10 1009.6
20260506111244 58 0.0 0.0 0.00 0.00 0.00 10 1009.9
20260506110244 56 0.0 0.0 0.00 0.00 0.00 10 1010.5
20260506105244 58 0.0 0.0 0.00 0.00 0.00 10 1009.9
20260506104244 60 0.0 0.0 0.00 0.00 0.00 10 1009.7
20260506103244 60 0.0 0.0 0.00 0.00 0.00 10 1009.5
20260506102244 59 0.0 0.0 0.00 0.00 0.00 10 1009.9
20260506101244 56 0.0 0.0 0.00 0.00 0.00 10 1010.5
20260506100244 56 0.0 0.0 0.00 0.00 0.00 10 1010.4
20260506095244 56 0.0 0.0 0.00 0.00 0.00 10 1010.6
20260506094245 54 0.0 0.0 0.00 0.00 0.00 10 1010.9
20260506093244 54 0.0 0.0 0.00 0.00 0.00 10 1010.7
20260506092244 54 0.0 0.0 0.00 0.00 0.00 10 1010.8
20260506091244 56 0.0 0.0 0.00 0.00 0.00 10 1010.5
20260506090244 57 0.0 0.0 0.00 0.00 0.00 10 1010.2
20260506085244 56 0.0 0.0 0.00 0.00 0.00 10 1010.4
20260506084244 54 0.0 0.0 0.00 0.00 0.00 10 1010.9
20260506083244 52 0.0 0.0 0.00 0.00 0.00 10 1011.2
20260506082244 51 0.0 0.0 0.00 0.00 0.00 10 1011.4
20260506081244 52 0.0 0.0 0.00 0.00 0.00 10 1011.2
20260506080244 51 0.0 0.0 0.00 0.00 0.00 10 1011.5
20260506073244 48 0.0 0.0 0.00 0.00 0.00 10 1012.1
20260506072244 48 0.0 0.0 0.00 0.00 0.00 10 1012.2
20260506071244 47 0.0 0.0 0.00 0.00 0.00 10 1012.4
20260506070244 46 0.0 0.0 0.00 0.00 0.00 10 1012.4
20260506062244 41 0.0 0.0 0.00 0.00 0.00 10 1013.6
20260506061245 42 0.0 0.0 0.00 0.00 0.00 10 1013.4
20260506060244 41 0.0 0.0 0.00 0.00 0.00 10 1013.5